Location: Newark
(48.3453°N, 0.5589°E)
Time: 01:23:15
(UTC+00:00)

Vanguard 2 Rocket - All Passes

Search period start: 07 December 2019 00:00
Search period end: 17 December 2019 00:00
Orbit: 554 x 3326 km, 32.9° (Epoch: 06 December)

Date Brightness Start Highest point End Pass type
(mag) Time Alt. Az. Time Alt. Az. Time Alt. Az.
07 Dec - 16:42:55 10° S 16:47:50 13° SSE 16:51:59 10° SE visible
07 Dec - 18:53:37 10° SW 19:01:26 22° S 19:06:52 10° SE visible
07 Dec - 21:08:26 10° SW 21:14:06 21° S 21:18:11 10° SE visible
08 Dec - 15:47:03 10° SSE 15:47:41 10° SSE 15:48:19 10° SSE daylight
08 Dec - 17:52:53 10° SSW 18:01:38 21° SSE 18:07:48 10° ESE visible
08 Dec - 20:07:19 10° SW 20:14:48 24° S 20:19:50 10° SE visible
08 Dec - 22:23:33 10° SW 22:26:47 14° SSW 22:29:28 10° S visible
09 Dec - 16:52:27 10° SSW 17:01:36 20° SSE 17:08:19 10° ESE visible
09 Dec - 19:06:06 10° SW 19:15:15 27° S 19:21:15 10° SE visible
09 Dec - 21:22:01 10° WSW 21:27:45 20° SSW 21:31:54 10° SSE visible
10 Dec - 15:52:38 10° S 16:01:21 17° SSE 16:08:10 10° ESE daylight
10 Dec - 18:04:50 10° SW 18:15:25 27° S 18:22:24 10° ESE visible
10 Dec - 20:20:35 10° WSW 20:28:30 26° SSW 20:33:46 10° SE visible
10 Dec - 22:38:31 10° SW 22:40:13 11° SSW 22:41:46 10° SSW night (unlit)
11 Dec - 14:54:02 10° S 15:00:58 14° SSE 15:06:53 10° ESE daylight
11 Dec - 17:03:44 10° SSW 17:15:19 26° SSE 17:23:14 10° ESE visible
11 Dec - 19:19:01 10° WSW 19:28:59 30° S 19:35:20 10° SE visible
11 Dec - 21:35:55 10° WSW 21:41:16 18° SSW 21:45:15 10° SSE visible
12 Dec - 16:03:00 10° SSW 16:15:00 24° SSE 16:23:38 10° ESE daylight
12 Dec - 18:17:23 10° SW 18:29:10 32° S 18:36:38 10° ESE visible
12 Dec - 20:34:06 10° WSW 20:42:06 25° SSW 20:47:27 10° SSE visible
13 Dec - 15:02:55 10° SSW 15:14:29 21° SSE 15:23:26 10° ESE daylight
13 Dec - 17:15:49 10° SW 17:29:01 32° S 17:37:38 10° ESE visible
13 Dec - 19:32:15 10° WSW 19:42:38 31° SSW 19:49:12 10° SE visible
13 Dec - 21:50:18 10° WSW 21:54:37 15° SW 21:58:02 10° S visible
14 Dec - 14:03:53 10° S 14:13:52 17° SSE 14:22:15 10° ESE daylight
14 Dec - 16:14:31 10° SW 16:28:36 31° SSE 16:38:17 10° ESE visible
14 Dec - 18:30:20 10° WSW 18:42:50 35° S 18:50:38 10° ESE visible
14 Dec - 20:47:53 10° WSW 20:55:33 22° SSW 21:00:50 10° SSE visible
15 Dec - 13:07:07 10° SSE 13:13:16 12° SE 13:18:55 10° ESE daylight
15 Dec - 15:13:41 10° SSW 15:27:58 28° SSE 15:38:29 10° ESE daylight
15 Dec - 17:28:25 10° SW 17:42:40 37° S 17:51:45 10° ESE visible
15 Dec - 19:45:43 10° WSW 19:56:09 30° SSW 20:02:51 10° SE visible
15 Dec - 22:06:08 10° SW 22:07:46 11° SW 22:09:17 10° SSW visible
16 Dec - 14:13:34 10° SSW 14:27:11 24° SSE 14:38:04 10° ESE daylight
16 Dec - 16:26:43 10° SW 16:42:11 37° S 16:52:31 10° ESE visible
16 Dec - 18:43:32 10° WSW 18:56:24 36° SSW 19:04:25 10° SE visible
16 Dec - 21:02:02 10° WSW 21:08:48 19° SW 21:13:45 10° S visible
